Girolata — FPOD — position and weather

sailwx.info

Track history (hours):
 
Tides and Currents Weather Stations Pressure Air Temp Water Temp Dewpoint Dewpoint Depression Visibility Wind Speed Wind Dir Waves Ship Positions

Girolata

Last reported at 2017-Mar-24 09:31 UTC. Time now 2017-Mar-24 10:06 UTC.
Position N 43°19' E 005°22'.

Length 177 m; beam 27 m.

Type: Passenger vessel. MMSI: 226245000.

Date/timePositionNaut miles runAvg speedWind from/ knotsBaromVisibWave heightAir tempDewpointWater temp
2017-Mar-24 09:31N 43°19' E 005°22'0 0.0
2017-Mar-24 08:28N 43°19' E 005°22'0 0.0
2017-Mar-24 07:31N 43°19' E 005°22'0 0.0
2017-Mar-24 06:31N 43°19' E 005°22'0 0.5
2017-Mar-24 05:33N 43°18' E 005°22'7 0.2
2017-Mar-22 19:20N 43°12' E 005°18'7 9.3
2017-Mar-22 18:32N 43°19' E 005°22'0 0.0
2017-Mar-22 17:32N 43°19' E 005°22'0 0.0
2017-Mar-22 16:17N 43°19' E 005°22'0 0.0
2017-Mar-22 15:26N 43°19' E 005°22'0 0.0
2017-Mar-22 14:32N 43°19' E 005°22'0 0.0
2017-Mar-22 13:20N 43°19' E 005°22'0 0.0
2017-Mar-22 12:32N 43°19' E 005°22'0 0.0
2017-Mar-22 11:32N 43°19' E 005°22'0 0.0
2017-Mar-22 10:26N 43°19' E 005°22'0 0.0
2017-Mar-22 09:32N 43°19' E 005°22'0 0.0
2017-Mar-22 08:32N 43°19' E 005°22'0 0.0
2017-Mar-22 07:32N 43°19' E 005°22'0 0.0
2017-Mar-22 06:32N 43°19' E 005°22'4 3.9
2017-Mar-22 05:33N 43°16' E 005°18'2 0.1
2017-Mar-20 19:33N 43°13' E 005°18'6 5.8
2017-Mar-20 18:33N 43°19' E 005°22'0 0.0
2017-Mar-20 17:27N 43°19' E 005°22'0 0.0
2017-Mar-20 16:33N 43°19' E 005°22'0 0.0
2017-Mar-20 15:33N 43°19' E 005°22'0 0.0
2017-Mar-20 14:33N 43°19' E 005°22'0 0.0
2017-Mar-20 13:30N 43°19' E 005°22'0 0.0
2017-Mar-20 12:33N 43°19' E 005°22'0 0.0
2017-Mar-20 11:27N 43°19' E 005°22'0 0.0
2017-Mar-20 10:27N 43°19' E 005°22'0 0.0
2017-Mar-20 09:27N 43°19' E 005°22'0 0.0
2017-Mar-20 08:33N 43°19' E 005°22'0 0.0
2017-Mar-20 07:33N 43°19' E 005°22'0 0.0
2017-Mar-20 06:33N 43°19' E 005°22'0 0.1
2017-Mar-20 05:34N 43°19' E 005°22'4 0.1
2017-Mar-18 18:33N 43°15' E 005°19'4 4.0
2017-Mar-18 17:33N 43°19' E 005°22'0 0.0
2017-Mar-18 16:30N 43°19' E 005°22'0 0.0
2017-Mar-18 15:27N 43°19' E 005°22'0 0.0
2017-Mar-18 14:27N 43°19' E 005°22'0 0.0
2017-Mar-18 13:33N 43°19' E 005°22'0 0.0
2017-Mar-18 12:33N 43°19' E 005°22'0 0.0
2017-Mar-18 11:30N 43°19' E 005°22'0 0.0
2017-Mar-18 10:33N 43°19' E 005°22'0 0.0
2017-Mar-18 09:33N 43°19' E 005°22'0 0.0
2017-Mar-18 08:33N 43°19' E 005°22'0 0.0
2017-Mar-18 07:30N 43°19' E 005°22'0 0.0
2017-Mar-18 06:33N 43°19' E 005°22'4 4.4
2017-Mar-18 05:34N 43°15' E 005°19'172 8.2
2017-Mar-17 08:26N 41°50' E 008°42'30 5.7
2017-Mar-17 03:07N 42°01' E 008°04'1117.8
2017-Mar-17 02:31N 42°06' E 007°51'1717.5
2017-Mar-17 01:34N 42°14' E 007°31'1717.3
2017-Mar-17 00:34N 42°22' E 007°10'1717.2
2017-Mar-16 23:33N 42°31' E 006°50'1817.8
2017-Mar-16 22:34N 42°39' E 006°29'1817.8
2017-Mar-16 21:33N 42°47' E 006°07'1717.6
2017-Mar-16 20:34N 42°56' E 005°46'2217.5
2017-Mar-16 19:18N 43°07' E 005°20'1114.7
2017-Mar-16 18:33N 43°18' E 005°21'1 1.4
2017-Mar-16 17:33N 43°19' E 005°22'0 0.0
2017-Mar-16 16:33N 43°19' E 005°22'0 0.0
2017-Mar-16 15:33N 43°19' E 005°22'0 0.0
2017-Mar-16 14:33N 43°19' E 005°22'0 0.0
2017-Mar-16 13:33N 43°19' E 005°22'0 0.0
2017-Mar-16 12:33N 43°19' E 005°22'0 0.0
2017-Mar-16 11:33N 43°19' E 005°22'0 0.0
2017-Mar-16 10:33N 43°19' E 005°22'0 0.0
2017-Mar-16 09:33N 43°19' E 005°22'0 0.0
2017-Mar-16 08:33N 43°19' E 005°22'0 0.0
2017-Mar-16 07:33N 43°19' E 005°22'0 0.0
2017-Mar-16 06:33N 43°19' E 005°22'6 5.5
2017-Mar-16 05:33N 43°14' E 005°18'2020.0
2017-Mar-16 04:33N 43°01' E 005°39'2421.0
2017-Mar-16 03:24N 42°48' E 006°08'1821.2
2017-Mar-16 02:33N 42°40' E 006°29'2020.5
2017-Mar-16 01:33N 42°29' E 006°53'2120.4
2017-Mar-16 00:32N 42°19' E 007°18'25 1.1
2017-Mar-15 02:22N 42°07' E 007°47'1417.8
2017-Mar-15 01:34N 42°14' E 007°30'11217.7
2017-Mar-14 19:12N 43°11' E 005°19'811.9
2017-Mar-14 18:33N 43°18' E 005°22'0 0.4
2017-Mar-14 17:31N 43°19' E 005°22'0 0.0
2017-Mar-14 16:31N 43°19' E 005°22'0 0.0
2017-Mar-14 15:28N 43°19' E 005°22'0 0.0
2017-Mar-14 14:31N 43°19' E 005°22'0 0.0
2017-Mar-14 13:28N 43°19' E 005°22'0 0.0
2017-Mar-14 12:31N 43°19' E 005°22'0 0.0
2017-Mar-14 11:31N 43°19' E 005°22'0 0.0
2017-Mar-14 10:31N 43°19' E 005°22'  
Track history (hours):
 
Tides and Currents Weather Stations Pressure Air Temp Water Temp Dewpoint Dewpoint Depression Visibility Wind Speed Wind Dir Waves Ship Positions

Girolata

Last reported at 2017-Mar-24 09:31 UTC. Time now 2017-Mar-24 10:06 UTC.
Position N 43°19' E 005°22'.

Length 177 m; beam 27 m.

Type: Passenger vessel. MMSI: 226245000.

Date/timePositionNaut miles runAvg speedWind from/ knotsBaromVisibWave heightAir tempDewpointWater temp
2017-Mar-24 09:31N 43°19' E 005°22'0 0.0
2017-Mar-24 08:28N 43°19' E 005°22'0 0.0
2017-Mar-24 07:31N 43°19' E 005°22'0 0.0
2017-Mar-24 06:31N 43°19' E 005°22'0 0.5
2017-Mar-24 05:33N 43°18' E 005°22'7 0.2
2017-Mar-22 19:20N 43°12' E 005°18'7 9.3
2017-Mar-22 18:32N 43°19' E 005°22'0 0.0
2017-Mar-22 17:32N 43°19' E 005°22'0 0.0
2017-Mar-22 16:17N 43°19' E 005°22'0 0.0
2017-Mar-22 15:26N 43°19' E 005°22'0 0.0
2017-Mar-22 14:32N 43°19' E 005°22'0 0.0
2017-Mar-22 13:20N 43°19' E 005°22'0 0.0
2017-Mar-22 12:32N 43°19' E 005°22'0 0.0
2017-Mar-22 11:32N 43°19' E 005°22'0 0.0
2017-Mar-22 10:26N 43°19' E 005°22'0 0.0
2017-Mar-22 09:32N 43°19' E 005°22'0 0.0
2017-Mar-22 08:32N 43°19' E 005°22'0 0.0
2017-Mar-22 07:32N 43°19' E 005°22'0 0.0
2017-Mar-22 06:32N 43°19' E 005°22'4 3.9
2017-Mar-22 05:33N 43°16' E 005°18'2 0.1
2017-Mar-20 19:33N 43°13' E 005°18'6 5.8
2017-Mar-20 18:33N 43°19' E 005°22'0 0.0
2017-Mar-20 17:27N 43°19' E 005°22'0 0.0
2017-Mar-20 16:33N 43°19' E 005°22'0 0.0
2017-Mar-20 15:33N 43°19' E 005°22'0 0.0
2017-Mar-20 14:33N 43°19' E 005°22'0 0.0
2017-Mar-20 13:30N 43°19' E 005°22'0 0.0
2017-Mar-20 12:33N 43°19' E 005°22'0 0.0
2017-Mar-20 11:27N 43°19' E 005°22'0 0.0
2017-Mar-20 10:27N 43°19' E 005°22'0 0.0
2017-Mar-20 09:27N 43°19' E 005°22'0 0.0
2017-Mar-20 08:33N 43°19' E 005°22'0 0.0
2017-Mar-20 07:33N 43°19' E 005°22'0 0.0
2017-Mar-20 06:33N 43°19' E 005°22'0 0.1
2017-Mar-20 05:34N 43°19' E 005°22'4 0.1
2017-Mar-18 18:33N 43°15' E 005°19'4 4.0
2017-Mar-18 17:33N 43°19' E 005°22'0 0.0
2017-Mar-18 16:30N 43°19' E 005°22'0 0.0
2017-Mar-18 15:27N 43°19' E 005°22'0 0.0
2017-Mar-18 14:27N 43°19' E 005°22'0 0.0
2017-Mar-18 13:33N 43°19' E 005°22'0 0.0
2017-Mar-18 12:33N 43°19' E 005°22'0 0.0
2017-Mar-18 11:30N 43°19' E 005°22'0 0.0
2017-Mar-18 10:33N 43°19' E 005°22'0 0.0
2017-Mar-18 09:33N 43°19' E 005°22'0 0.0
2017-Mar-18 08:33N 43°19' E 005°22'0 0.0
2017-Mar-18 07:30N 43°19' E 005°22'0 0.0
2017-Mar-18 06:33N 43°19' E 005°22'4 4.4
2017-Mar-18 05:34N 43°15' E 005°19'172 8.2
2017-Mar-17 08:26N 41°50' E 008°42'30 5.7
2017-Mar-17 03:07N 42°01' E 008°04'1117.8
2017-Mar-17 02:31N 42°06' E 007°51'1717.5
2017-Mar-17 01:34N 42°14' E 007°31'1717.3
2017-Mar-17 00:34N 42°22' E 007°10'1717.2
2017-Mar-16 23:33N 42°31' E 006°50'1817.8
2017-Mar-16 22:34N 42°39' E 006°29'1817.8
2017-Mar-16 21:33N 42°47' E 006°07'1717.6
2017-Mar-16 20:34N 42°56' E 005°46'2217.5
2017-Mar-16 19:18N 43°07' E 005°20'1114.7
2017-Mar-16 18:33N 43°18' E 005°21'1 1.4
2017-Mar-16 17:33N 43°19' E 005°22'0 0.0
2017-Mar-16 16:33N 43°19' E 005°22'0 0.0
2017-Mar-16 15:33N 43°19' E 005°22'0 0.0
2017-Mar-16 14:33N 43°19' E 005°22'0 0.0
2017-Mar-16 13:33N 43°19' E 005°22'0 0.0
2017-Mar-16 12:33N 43°19' E 005°22'0 0.0
2017-Mar-16 11:33N 43°19' E 005°22'0 0.0
2017-Mar-16 10:33N 43°19' E 005°22'0 0.0
2017-Mar-16 09:33N 43°19' E 005°22'0 0.0
2017-Mar-16 08:33N 43°19' E 005°22'0 0.0
2017-Mar-16 07:33N 43°19' E 005°22'0 0.0
2017-Mar-16 06:33N 43°19' E 005°22'6 5.5
2017-Mar-16 05:33N 43°14' E 005°18'2020.0
2017-Mar-16 04:33N 43°01' E 005°39'2421.0
2017-Mar-16 03:24N 42°48' E 006°08'1821.2
2017-Mar-16 02:33N 42°40' E 006°29'2020.5
2017-Mar-16 01:33N 42°29' E 006°53'2120.4
2017-Mar-16 00:32N 42°19' E 007°18'25 1.1
2017-Mar-15 02:22N 42°07' E 007°47'1417.8
2017-Mar-15 01:34N 42°14' E 007°30'11217.7
2017-Mar-14 19:12N 43°11' E 005°19'811.9
2017-Mar-14 18:33N 43°18' E 005°22'0 0.4
2017-Mar-14 17:31N 43°19' E 005°22'0 0.0
2017-Mar-14 16:31N 43°19' E 005°22'0 0.0
2017-Mar-14 15:28N 43°19' E 005°22'0 0.0
2017-Mar-14 14:31N 43°19' E 005°22'0 0.0
2017-Mar-14 13:28N 43°19' E 005°22'0 0.0
2017-Mar-14 12:31N 43°19' E 005°22'0 0.0
2017-Mar-14 11:31N 43°19' E 005°22'0 0.0
2017-Mar-14 10:31N 43°19' E 005°22'  

Dump ship's entire track history